Location: Cabeza de los Veneras
(40.2000°N, 5.2000°W)
Time: 04:01:43
(UTC+00:00)

BlueWalker 3 - Pass Details

Date: 01 July 2024
Orbit: 480 x 491 km, 53.2° (Epoch: 21 July)

Event Time Altitude Azimuth Distance (km) Brightness Sun altitude
Rises 21:06:46 0° 315° (NW) 2,544 7.7 -11.8°
Reaches altitude 10° 21:09:48 10° 341° (NNW) 1,661 5.7 -12.2°
Maximum altitude 21:11:52 14° 15° (NNE) 1,418 4.6 -12.5°
Drops below altitude 10° 21:13:56 10° 49° (NE) 1,657 4.5 -12.7°
Enters shadow 21:16:34 - 73° (ENE) 2,403 5.1 -13.1°
